User: anonymous   Login
Location: Brno
(49.2000°N, 16.6330°E)
Time: 10:53:57
(UTC+01:00)
Language:

Cosmos 2227 - Orbit

View from above orbital plane
View from above orbital plane
View from above satellite
View from above satellite

Ground track
Ground track

The orbit data is extracted from the following two-line orbital elements,

1 22284U 92093A   16345.84353168  .00000222  00000-0  14334-3 0  9992
2 22284  70.9779 270.3054 0017353 101.1095 259.1979 14.13265771236039
Epoch (UTC): 10 December 2016 20:14:41
Eccentricity: 0.0017353
inclination: 70.9779°
perigee height: 835 km
apogee height: 861 km
right ascension of ascending node: 270.3054°
argument of perigee: 101.1095°
revolutions per day: 14.13265771
mean anomaly at epoch: 259.1979°
orbit number at epoch: 23603

The dashed part of the orbit path shows where the satellite is in the earth's shadow,  

DLR